RH
84 82 83 85 79 80 78 75 58 60 66 74 93 81 65 58 58 54 53 54 54 55 60 73 77 76 70 62 63 66 77 76 92 71 75 68 67 72 74 75 57 92 88 75
86 84 83 85 81 80 78 62 68 72 53 81 85 73 66 64 59 62 55 56 52 55 64 66 78 79 65 65 72 66 66 75 86 62 74 77 85 81 70 71 82 88 84 71
87 85 85 89 85 81 78 63 70 63 73 77 69 67 66 68 64 61 56 56 53 56 69 70 76 79 72 70 72 65 62 81 57 59 61 81 89 82 80 74 93 81 88 75
84 87 89 89 84 79 65 67 70 75 56 62 68 66 68 64 63 63 60 62 56 54 67 74 78 84 82 74 70 78 72 76 87 82 74 82 77 73 84 85 76 76 72 77
84 87 91 90 84 69 77 65 62 67 66 57 52 62 62 57 63 62 63 63 58 69 63 57 70 75 78 73 83 82 81 74 86 83 73 80 81 78 79 77 72 75 68 68
83 87 92 90 85 65 73 86 80 51 63 58 54 52 59 56 55 60 59 60 63 65 64 63 74 70 70 73 78 82 84 86 86 74 79 69 56 58 70 79 79 68 78 61
81 83 89 90 86 73 78 92 85 57 51 56 47 52 53 58 58 54 58 58 61 69 70 67 61 65 69 71 82 81 89 84 85 91 75 58 36 52 58 66 67 72 70 68
78 78 84 89 86 71 84 94 80 70 56 54 53 52 60 64 66 66 62 65 69 73 60 62 62 69 72 84 85 85 82 84 88 86 91 63 61 60 55 49 50 54 61 55
75 74 78 84 87 78 88 95 94 78 60 55 50 53 64 61 69 71 79 76 75 69 68 57 56 62 67 87 90 82 84 83 84 93 93 66 48 67 64 45 45 48 45 51
71 70 72 77 84 85 85 92 90 83 73 72 63 56 56 62 74 72 84 81 81 72 71 63 74 53 61 80 89 98 91 92 95 92 95 84 60 55 61 51 40 49 54 57
70 64 66 69 77 88 88 94 87 82 90 84 61 56 62 67 71 68 73 68 81 89 70 65 64 66 58 66 73 88 90 96 94 87 99 82 56 62 50 40 52 52 52 52
70 64 64 67 70 83 85 94 91 83 92 86 86 76 72 65 62 70 86 58 81 78 76 86 74 66 79 57 49 80 67 64 78 79 75 55 64 55 49 44 44 51 52 52
69 65 66 74 76 75 85 97 96 94 95 86 90 87 76 66 71 68 75 83 74 80 76 82 82 70 68 68 66 63 65 63 66 65 55 64 56 48 46 50 48 52 56 59
67 65 80 80 79 82 85 96 97 95 96 95 76 67 79 78 72 72 69 73 79 80 82 82 82 77 63 62 59 60 49 63 62 65 52 53 56 56 59 56 57 59 61 64
70 77 78 76 75 81 90 97 97 94 86 81 92 88 80 80 77 76 79 77 81 88 86 90 84 85 77 81 82 79 56 57 56 52 49 49 55 63 65 65 66 66 71 66
74 71 67 69 73 84 92 93 97 93 94 94 96 89 87 81 84 83 84 81 86 87 82 84 88 77 69 76 86 64 61 63 56 54 63 55 57 63 68 67 68 69 66 66
70 66 66 72 75 96 92 81 84 91 89 84 93 94 88 85 88 92 92 89 92 88 89 93 90 84 81 92 91 62 59 61 61 62 59 63 66 70 67 66 64 64 62 63
73 63 62 67 85 89 96 96 88 88 87 89 98 94 91 84 91 92 95 95 94 93 93 95 92 88 92 94 79 63 61 70 74 72 68 71 69 64 61 63 64 61 59 60
69 68 69 90 92 98 96 88 88 96 88 98 87 98 96 87 92 94 90 93 97 94 97 95 90 93 96 81 72 78 77 75 76 66 61 60 61 60 57 59 58 65 64 64
67 90 95 95 98 82 86 91 96 96 97 99 98 93 96 85 89 92 93 95 96 97 93 93 97 93 89 83 76 71 68 60 61 65 71 69 66 61 57 56 60 66 70 70
92 96 93 94 86 93 93 94 96 93 98 97 90 95 98 95 97 96 93 97 94 90 89 93 90 96 90 89 87 80 80 81 76 74 71 68 65 64 63 64 65 70 72 73
86 89 88 87 89 93 96 92 91 98 95 99 98 98 98 99 98 96 97 98 92 88 96 87 84 80 84 75 71 68 71 74 71 71 71 72 70 70 72 75 76 77 76 76
82 82 87 82 91 98 100 99 90 98 100 98 98 97 95 97 96 99 97 98 96 94 98 95 89 88 81 77 76 68 68 70 69 68 70 72 74 74 78 80 76 79 81 74
85 79 63 78 96 96 94 94 95 94 97 99 97 99 97 87 98 98 99 94 96 98 100 96 96 90 80 84 76 82 69 69 72 72 73 75 78 77 76 77 76 81 80 72
91 86 73 96 82 98 92 96 99 99 99 98 96 96 88 96 96 93 97 96 96 89 92 94 98 94 92 82 81 78 79 74 74 75 77 75 75 79 76 71 74 79 78 79
97 97 91 91 96 98 96 96 100 98 98 97 93 97 94 94 96 94 97 98 97 90 97 94 96 95 91 87 85 82 80 82 81 79 80 75 76 78 73 72 78 77 74 74
100 93 90 97 98 95 98 98 95 95 88 87 95 89 76 90 100 100 95 96 91 92 96 97 91 87 85 83 77 68 64 64 70 78 76 74 68 73 82 83 67 70 71 75
Wind_Speed
19 20 21 23 21 17 7 2 4 3 3 6 2 3 4 3 2 4 2 3 3 2 2 3 2 1 2 5 2 3 1 5 3 1 2 3 2 3 4 6 5 1 4 11
17 19 21 22 23 12 3 2 2 3 4 5 2 1 3 2 1 1 1 2 1 1 3 3 1 1 3 5 3 3 3 1 3 7 5 4 3 4 4 4 3 6 7 9
17 18 19 21 23 11 4 3 4 5 6 1 7 3 1 1 2 0 1 3 2 3 2 4 4 2 1 2 2 4 2 2 5 8 5 5 4 5 6 5 4 4 8 6
17 19 19 20 21 7 3 4 0 2 1 4 4 3 3 2 1 2 3 1 2 5 4 2 3 3 1 2 2 2 3 1 2 4 6 3 5 5 9 10 6 8 4 8
14 17 18 21 21 5 5 3 4 3 2 3 2 2 5 6 2 3 2 2 3 1 4 5 7 5 4 4 1 3 1 1 1 4 3 5 8 9 10 13 9 12 13 22
14 14 15 17 22 7 4 2 1 4 3 2 3 2 3 6 6 2 1 1 3 1 2 3 2 2 2 2 6 4 4 4 2 5 4 6 8 10 15 6 6 10 11 10
9 12 15 15 17 9 3 1 2 4 1 1 2 1 1 2 2 2 1 3 3 1 3 3 5 7 5 6 4 2 5 4 2 3 5 3 5 3 5 11 4 9 5 4
6 8 12 14 15 11 5 0 2 3 0 1 1 3 2 2 3 3 2 5 2 0 4 4 4 4 4 1 3 1 1 4 2 1 3 8 0 2 5 6 2 4 5 2
3 6 8 10 12 9 4 2 0 3 5 4 1 2 3 3 1 2 2 2 1 5 3 2 4 4 4 2 1 4 3 3 4 2 2 6 3 1 1 2 2 0 4 1
2 2 5 7 9 9 4 1 2 3 3 3 2 3 4 5 2 2 1 2 2 4 2 1 3 4 5 3 6 5 3 0 5 4 4 9 7 5 1 5 6 2 2 1
4 1 2 4 6 7 4 1 2 3 1 4 1 1 4 1 3 5 4 4 3 2 3 3 3 3 4 2 5 6 7 7 5 5 4 9 5 2 1 2 2 2 1 1
8 4 2 3 5 6 3 2 1 2 2 3 1 2 1 1 2 5 2 3 4 5 3 2 2 2 1 1 3 1 4 7 6 9 7 3 1 1 3 3 2 1 2 2
11 7 3 1 3 4 4 2 1 3 2 4 2 3 1 2 2 2 4 3 3 3 4 4 2 3 4 3 5 2 4 4 3 1 1 3 4 2 3 2 1 3 4 4
12 8 6 2 1 2 3 2 2 3 3 1 4 1 1 1 2 1 1 2 3 4 2 2 3 3 3 4 2 3 2 4 3 5 3 5 4 4 4 5 4 5 5 3
11 8 5 3 1 2 2 2 3 2 3 2 4 4 1 2 3 1 2 2 2 1 1 1 4 2 2 1 2 4 4 5 4 4 1 2 3 4 1 3 4 4 4 5
7 5 2 0 1 3 1 2 1 1 4 1 4 2 1 4 4 4 3 3 2 1 3 4 3 3 3 3 4 3 2 2 3 2 1 1 4 5 3 2 2 4 3 2
10 8 6 6 3 2 1 2 3 3 1 0 4 4 1 0 2 2 2 3 0 3 2 3 2 2 3 3 4 4 4 3 3 3 1 3 4 1 3 2 3 4 4 5
2 6 8 9 3 6 1 1 2 3 3 1 2 4 3 1 1 0 0 1 2 1 2 1 2 1 1 5 3 3 4 5 5 5 5 3 2 1 3 3 3 5 6 6
5 5 7 2 2 2 1 0 3 1 2 2 3 3 3 1 1 1 1 1 1 0 2 3 2 2 5 3 4 3 2 3 4 2 4 4 3 4 5 4 5 5 7 7
2 1 2 2 1 1 1 2 2 0 1 2 3 2 2 0 1 1 2 1 1 2 3 2 3 3 0 1 3 5 5 5 5 3 2 2 4 4 5 4 5 6 7 8
2 2 2 1 3 1 0 2 2 2 3 3 2 3 2 0 2 2 1 2 2 2 3 3 2 3 2 3 2 2 2 3 4 4 4 4 5 6 7 8 6 6 7 7
4 4 3 2 3 2 2 2 0 4 3 1 2 2 1 1 1 2 1 2 1 4 1 2 3 2 3 4 2 0 2 4 5 4 7 7 7 7 7 7 8 7 7 8
4 4 5 4 4 2 6 7 3 2 2 2 2 2 1 1 0 1 1 2 3 2 2 4 4 3 5 5 2 4 3 4 6 7 6 7 7 7 6 8 8 8 8 10
4 4 2 4 3 5 5 4 4 4 3 3 2 2 3 1 1 1 1 1 2 1 2 6 3 5 6 5 2 2 5 6 7 8 8 8 8 9 9 8 9 8 10 11
3 5 4 5 4 1 1 1 1 1 2 3 2 3 2 2 2 1 3 3 3 4 5 3 4 5 5 6 5 6 7 7 7 7 7 9 9 9 11 11 9 8 9 10
4 2 1 2 3 2 2 3 2 2 3 1 3 3 4 2 1 2 5 3 6 5 4 5 4 5 7 7 7 8 7 7 9 9 8 10 10 11 11 10 8 10 11 12
2 4 2 2 1 4 3 4 3 2 4 2 4 4 7 2 2 3 4 6 5 5 4 3 6 7 8 8 8 8 9 10 11 9 10 12 12 8 7 11 15 10 10 10
Wind_Direction
352 352 352 350 353 354 50 78 44 300 53 50 27 81 134 167 6 9 41 95 89 78 74 78 82 94 1 338 354 57 17 122 122 145 296 190 158 168 141 122 216 150 143 273
354 353 351 350 353 354 107 69 264 326 82 98 34 353 59 77 114 54 61 90 20 105 111 94 87 97 350 4 49 137 179 16 56 352 358 354 217 198 145 117 91 200 137 261
353 355 353 351 354 352 82 78 24 339 46 100 119 123 92 28 12 24 124 141 125 108 102 31 155 147 352 15 83 77 78 122 163 185 200 140 199 199 180 142 136 186 226 274
359 355 352 355 359 17 65 33 316 186 12 346 99 106 137 124 232 354 351 21 198 158 131 117 151 184 146 49 21 65 95 173 196 250 244 216 221 193 185 200 187 188 228 227
2 2 358 355 359 51 76 102 116 14 65 346 73 30 200 167 174 165 259 247 188 186 155 184 194 147 199 195 88 124 31 190 60 287 347 233 256 232 214 215 228 253 267 283
353 4 3 8 5 26 85 323 10 96 331 53 92 239 196 210 145 190 246 184 100 92 180 84 37 84 97 150 153 159 134 129 88 269 347 314 290 233 208 182 195 205 226 244
355 1 9 12 20 58 98 131 96 76 277 75 228 232 134 158 257 190 161 100 124 117 62 76 50 35 73 79 37 109 132 118 124 279 352 258 248 295 191 204 203 216 271 256
353 15 20 15 21 35 86 32 90 106 85 213 320 113 87 32 54 65 20 8 347 61 68 59 22 348 358 50 18 66 157 130 131 205 235 291 307 147 141 168 24 190 214 248
339 360 28 23 23 40 84 60 191 102 110 268 326 141 163 167 238 346 117 103 55 31 59 116 194 227 213 247 326 26 62 72 128 140 201 235 227 183 133 92 323 187 143 88
238 332 11 28 21 39 97 46 69 58 104 258 153 198 183 136 120 132 327 166 80 74 77 275 207 236 167 192 181 173 128 121 198 209 273 286 247 250 161 122 212 96 90 15
205 254 343 25 23 34 95 188 16 107 138 279 229 221 155 123 135 156 195 73 331 57 152 174 248 241 234 150 164 175 170 150 190 163 230 278 177 85 208 191 66 109 332 272
188 204 267 356 356 30 97 71 43 67 128 250 317 319 319 318 188 141 189 170 167 184 118 187 140 249 342 256 265 132 212 186 179 194 213 252 281 89 71 96 145 102 274 299
188 186 203 324 346 26 87 132 18 64 47 315 10 221 326 58 44 297 135 283 186 171 177 160 181 222 136 199 241 252 254 177 202 104 16 256 275 32 84 29 88 11 355 335
181 183 162 159 69 10 115 110 149 91 108 269 281 317 38 306 26 221 249 145 55 98 101 145 157 195 162 208 235 216 219 146 201 263 265 92 40 39 17 346 19 357 350 326
161 156 165 171 86 10 118 159 170 154 123 241 279 313 348 5 313 247 173 157 125 131 110 129 222 205 145 160 96 242 188 206 183 242 151 129 163 126 26 54 15 346 346 339
111 90 94 330 182 124 138 20 33 176 141 94 298 279 14 5 40 79 111 146 129 124 163 201 242 259 155 194 214 250 145 177 220 242 262 111 111 97 37 74 10 347 331 291
60 39 13 349 292 132 194 216 171 171 162 258 295 312 291 14 57 28 51 37 137 140 222 230 193 245 169 183 203 170 119 86 42 20 280 118 47 25 333 324 341 318 283 278
204 248 271 285 188 116 146 348 89 114 90 48 256 269 344 163 153 126 356 102 38 324 226 321 206 109 108 256 227 128 124 103 56 43 43 86 148 102 0 337 331 338 332 332
228 244 253 168 58 127 191 91 79 61 135 216 197 178 249 34 123 120 74 114 164 330 216 240 152 199 224 197 156 143 107 147 157 97 81 48 38 331 307 308 339 336 327 327
167 106 115 161 82 288 151 58 116 326 210 259 239 126 256 155 108 129 115 9 231 227 231 103 216 251 77 281 159 138 153 153 147 136 269 283 280 280 319 316 286 261 270 283
55 98 109 212 319 68 51 184 192 150 243 195 222 185 174 355 134 203 152 197 175 255 262 190 230 276 229 178 122 202 223 262 291 280 287 288 272 281 287 293 277 274 271 272
159 126 80 43 43 54 209 209 240 201 227 129 184 171 129 113 81 96 225 162 151 256 138 237 251 247 158 153 158 184 296 298 297 289 286 285 278 267 266 270 278 278 265 277
46 52 60 65 298 136 183 193 213 212 180 190 169 143 132 123 330 175 179 179 222 93 75 227 223 210 176 189 216 311 316 296 292 296 278 275 279 282 251 270 271 268 271 274
80 105 282 150 222 238 195 184 187 237 136 138 133 116 142 141 137 185 141 239 123 270 236 236 245 210 192 192 225 239 279 286 273 273 276 272 269 273 276 265 263 262 270 279
113 89 224 217 232 214 220 107 17 308 138 110 91 51 72 36 50 262 51 2 247 226 228 230 230 192 179 239 246 271 284 287 288 277 276 282 281 270 273 270 264 255 263 265
92 102 82 242 77 236 212 194 256 230 122 89 47 86 56 335 144 62 223 180 226 246 216 221 182 206 217 234 251 265 267 263 268 272 267 270 270 266 269 281 270 268 267 269
109 271 233 158 149 199 205 175 201 151 73 134 98 86 210 52 55 258 201 209 218 217 238 227 203 204 227 240 250 260 266 271 268 266 266 264 269 270 271 276 281 272 263 254